Satellite: PO-28
Catalog number: 22829
Epoch time:      08023.86179389
Element set:     857
Inclination:      098.3447 deg
RA of node:       351.5945 deg
Eccentricity:    0.0009111
Arg of perigee:   303.6107 deg
Mean anomaly:     056.4203 deg
Mean motion:   14.30178599 rev/day
Decay rate:       -1.0e-08 rev/day^2
Epoch rev:           74735
Checksum:              323

Satellite: GO-32
Catalog number: 25397
Epoch time:      08024.13706236
Element set:     508
Inclination:      098.3858 deg
RA of node:       066.3241 deg
Eccentricity:    0.0000664
Arg of perigee:   352.7890 deg
Mean anomaly:     007.3263 deg
Mean motion:   14.23138174 rev/day
Decay rate:       1.17e-06 rev/day^2
Epoch rev:           49558
Checksum:              304

Satellite: MO-46
Catalog number: 26548
Epoch time:      08024.00470672
Element set:       5
Inclination:      064.5543 deg
RA of node:       219.4960 deg
Eccentricity:    0.0012661
Arg of perigee:   343.8458 deg
Mean anomaly:     016.2235 deg
Mean motion:   14.83221616 rev/day
Decay rate:        6.3e-07 rev/day^2
Epoch rev:           39628
Checksum:              290

Satellite: NO-44
Catalog number: 26931
Epoch time:      08024.03936190
Element set:     788
Inclination:      067.0544 deg
RA of node:       298.5723 deg
Eccentricity:    0.0004756
Arg of perigee:   270.0619 deg
Mean anomaly:     089.9930 deg
Mean motion:   14.29510030 rev/day
Decay rate:        6.7e-07 rev/day^2
Epoch rev:           32966
Checksum:              319

Satellite: SO-50
Catalog number: 27607
Epoch time:      08024.57288348
Element set:     512
Inclination:      064.5593 deg
RA of node:       132.8138 deg
Eccentricity:    0.0078148
Arg of perigee:   308.2235 deg
Mean anomaly:     051.1837 deg
Mean motion:   14.71321195 rev/day
Decay rate:       -3.3e-07 rev/day^2
Epoch rev:           27369
Checksum:              307

Satellite: CO-55
Catalog number: 27844
Epoch time:      08024.27237116
Element set:     219
Inclination:      098.7181 deg
RA of node:       034.5384 deg
Eccentricity:    0.0009860
Arg of perigee:   169.7706 deg
Mean anomaly:     190.3694 deg
Mean motion:   14.20556485 rev/day
Decay rate:        5.0e-07 rev/day^2
Epoch rev:           23686
Checksum:              323

Satellite: CO-57
Catalog number: 27848
Epoch time:      08024.03980371
Element set:     174
Inclination:      098.7178 deg
RA of node:       033.4362 deg
Eccentricity:    0.0009523
Arg of perigee:   174.5064 deg
Mean anomaly:     185.6212 deg
Mean motion:   14.20369620 rev/day
Decay rate:        6.6e-07 rev/day^2
Epoch rev:           23680
Checksum:              305

Satellite: AO-51
Catalog number: 28375
Epoch time:      08024.16334624
Element set:      14
Inclination:      098.0868 deg
RA of node:       056.7785 deg
Eccentricity:    0.0083024
Arg of perigee:   232.8417 deg
Mean anomaly:     126.5166 deg
Mean motion:   14.40594707 rev/day
Decay rate:        7.0e-08 rev/day^2
Epoch rev:           18752
Checksum:              310

Satellite: CO-56
Catalog number: 28941
Epoch time:      08024.81637952
Element set:     786
Inclination:      098.1067 deg
RA of node:       116.7822 deg
Eccentricity:    0.0193196
Arg of perigee:   202.6450 deg
Mean anomaly:     156.6278 deg
Mean motion:   15.48924939 rev/day
Decay rate:     2.1780e-04 rev/day^2
Epoch rev:           10763
Checksum:              349

Satellite: HO-59
Catalog number: 29484
Epoch time:      08024.81997618
Element set:      66
Inclination:      098.2556 deg
RA of node:       116.1740 deg
Eccentricity:    0.0138586
Arg of perigee:   179.8850 deg
Mean anomaly:     180.2287 deg
Mean motion:   15.71755703 rev/day
Decay rate:     6.5597e-04 rev/day^2
Epoch rev:            7563
Checksum:              370

Satellite: NO-61
Catalog number: 29664
Epoch time:      07359.16654419
Element set:     738
Inclination:      051.6179 deg
RA of node:       150.0690 deg
Eccentricity:    0.0003189
Arg of perigee:   248.8461 deg
Mean anomaly:     111.8136 deg
Mean motion:   16.51627846 rev/day
Decay rate:  1.4620719e-01 rev/day^2
Epoch rev:            5877
Checksum:              345

Satellite: CP4
Catalog number: 31122
Epoch time:      08024.27589392
Element set:     244
Inclination:      098.0599 deg
RA of node:       095.1327 deg
Eccentricity:    0.0086582
Arg of perigee:   059.5834 deg
Mean anomaly:     301.3815 deg
Mean motion:   14.55079769 rev/day
Decay rate:       5.51e-06 rev/day^2
Epoch rev:            4100
Checksum:              311

Satellite: CP3
Catalog number: 31128
Epoch time:      08024.13243379
Element set:     239
Inclination:      098.0583 deg
RA of node:       093.5835 deg
Eccentricity:    0.0103776
Arg of perigee:   063.6463 deg
Mean anomaly:     297.5373 deg
Mean motion:   14.51907235 rev/day
Decay rate:       -4.6e-07 rev/day^2
Epoch rev:            4088
Checksum:              310

